Mona RAF, United Kingdom

11:26 AM GMT on February 24, 2017 (GMT +0000)
Valley Air Base

Weather History for EGOV - October, 2012

Change the Weather History Date:

Saturday, October 6, 2012

  Actual Average Record
Temperature  
Mean Temperature 49 °F -  
Max Temperature 56 °F 57 °F 67 °F (2015)
Min Temperature 42 °F 47 °F 39 °F (1999)
Degree Days  
Heating Degree Days 16    
Moisture  
Dew Point 47 °F    
Average Humidity 87    
Maximum Humidity 100    
Minimum Humidity 65    
Precipitation  
Precipitation 0.00 in 0.12 in - ()
Sea Level Pressure  
Sea Level Pressure 29.93 in    
Wind  
Wind Speed 6 mph ()    
Max Wind Speed 12 mph    
Max Gust Speed -    
Visibility 6.6 miles    
Events Rain    
Averages and records for this station are not official NWS values.
T = Trace of Precipitation, MM = Missing Value Source: Averaged Metar Reports

Daily Weather History Graph

Daily Weather History Graph

Search for Another Location

Airport or City:

Trip Planner

Search our weather history database for the weather conditions in past years. The results will help you decide how hot, cold, wet, or windy it might be!

Date:

Astronomy

Oct. 06, 2012 Rise Set
Actual Time 7:29 AM BST 6:42 PM BST
Civil Twilight 6:54 AM BST 7:16 PM BST
Nautical Twilight 6:14 AM BST 7:56 PM BST
Astronomical Twilight 5:33 AM BST 8:37 PM BST
Moon 10:05 PM BST (10/6) 1:52 PM BST (10/6)
Length of Visible Light 12h 22m
Length of Day
11h 13m
Waning Gibbous, 67% of the Moon is Illuminated
Oct 6
Waning Gibbous
Oct 8
Last Quarter
Oct 15
New
Oct 22
First Quarter
Oct 29
Full

Hourly Weather History & Observations

Time (BST) Temp. Windchill Dew Point Humidity Pressure Visibility Wind Dir Wind Speed Gust Speed Precip Events Conditions
12:50 AM 51 °F - 44 °F 69% 29.80 in 31 mi WSW 11.5 mph - -   Partly Cloudy
12:50 AM 51.8 °F - 44.6 °F 76% 29.77 in 6.2 mi WSW 11.5 mph - N/A   Mostly Cloudy
1:50 AM 51.8 °F - 48.2 °F 88% 29.80 in 6.2 mi WSW 3.5 mph - N/A   Mostly Cloudy
2:50 AM 48.2 °F - 46.4 °F 93% 29.80 in 6.2 mi West 4.6 mph - N/A   Partly Cloudy
3:50 AM 46 °F - 46 °F 97% 29.81 in 25 mi NE 1.2 mph - -  
3:50 AM 46.4 °F - 46.4 °F 100% 29.80 in 6.2 mi NE 1.2 mph - N/A   Unknown
4:50 AM 44.6 °F - 44.6 °F 100% 29.80 in 6.2 mi NNW 2.3 mph - N/A   Unknown
5:50 AM - - - N/A% 29.83 in 6.2 mi NW 2.3 mph - N/A   Unknown
6:50 AM 43 °F - 42 °F 96% 29.86 in 31 mi WNW 6.9 mph - -  
6:50 AM 42.8 °F 38.6 °F 42.8 °F 100% 29.83 in 6.2 mi WNW 6.9 mph - N/A   Unknown
7:50 AM 44.6 °F 40.7 °F 42.8 °F 93% 29.86 in 6.2 mi NW 6.9 mph - N/A   Unknown
8:50 AM 48.2 °F - 44.6 °F 87% 29.89 in 6.2 mi NW 2.3 mph - N/A   Unknown
9:50 AM 54 °F - 51 °F 84% 29.92 in 25 mi WNW 9.2 mph - -   Scattered Clouds
9:50 AM 55.4 °F - 50.0 °F 82% 29.92 in 6.2 mi WNW 9.2 mph - N/A   Partly Cloudy
10:50 AM 53.6 °F - 48.2 °F 82% 29.92 in 6.2 mi NNW 8.1 mph - N/A   Partly Cloudy
11:50 AM 55.4 °F - 48.2 °F 77% 29.92 in 6.2 mi NW 4.6 mph - N/A   Scattered Clouds
12:50 PM 55 °F - 49 °F 72% 29.96 in 31 mi NNW 6.9 mph - -  
12:50 PM 55.4 °F - 48.2 °F 77% 29.95 in 6.2 mi NNW 6.9 mph - N/A   Unknown
1:50 PM 55.4 °F - 48.2 °F 77% 29.95 in 6.2 mi NW 6.9 mph - N/A   Scattered Clouds
2:50 PM 55.4 °F - 50.0 °F 82% 29.98 in 6.2 mi NW 8.1 mph - N/A   Scattered Clouds
3:50 PM 56 °F - 47 °F 65% 29.99 in 22 mi NW 8.1 mph - -  
3:50 PM 55.4 °F - 48.2 °F 77% 29.98 in 6.2 mi NW 8.1 mph - N/A   Unknown
4:50 PM 55.4 °F - 48.2 °F 77% 29.98 in 6.2 mi NNW 6.9 mph - N/A   Unknown
5:50 PM 53.6 °F - 48.2 °F 82% 29.98 in 6.2 mi NNW 5.8 mph - N/A   Unknown
6:50 PM 52 °F - 49 °F 86% 30.02 in 28 mi WNW 5.8 mph - - Rain Rain
6:50 PM 51.8 °F - 50.0 °F 94% 30.01 in 6.2 mi WNW 5.8 mph - N/A   Mostly Cloudy
7:50 PM 48.2 °F - 48.2 °F 100% 30.04 in 6.2 mi WNW 4.6 mph - N/A   Scattered Clouds
8:50 PM 50.0 °F - 50.0 °F 100% 30.04 in 6.2 mi WNW 3.5 mph - N/A   Mostly Cloudy
9:50 PM 50 °F - 49 °F 95% 30.07 in 17 mi ENE 3.5 mph - -   Scattered Clouds
9:50 PM 50.0 °F - 48.2 °F 94% 30.06 in 6.2 mi ENE 3.5 mph - N/A   Mostly Cloudy
10:50 PM 51.8 °F - 50.0 °F 94% 30.06 in 6.2 mi NE 4.6 mph - N/A   Mostly Cloudy
11:50 PM 51.8 °F - 50.0 °F 94% 30.06 in 6.2 mi NNE 3.5 mph - N/A   Mostly Cloudy